This is the latest recevied weather packets stored in our database for station/object W0RMT-13. If no packets are shown the sender has not sent any weather packets the latest 10 day(s).
| Time | Temp. | Humidity | Pressure | Rain* | Wind** | Luminosity | Snow |
|---|---|---|---|---|---|---|---|
| 1777827064 | 21.11° C | 20% | 1015.8 hPa | 0 mm | - | 251 W/m² | - |
| 1777826388 | 21.11° C | 22% | 1015.8 hPa | 0 mm | - | 251 W/m² | - |
| 1777825740 | 20.56° C | 21% | 1015.8 hPa | 0 mm | - | 265 W/m² | - |
| 1777825011 | 20.56° C | 21% | 1015.8 hPa | 0 mm | - | 249 W/m² | - |
| 1777824309 | 20° C | 22% | 1016.2 hPa | 0 mm | - | 246 W/m² | - |
| 1777823688 | 20° C | 23% | 1015.8 hPa | 0 mm | - | 269 W/m² | - |
| 1777823010 | 19.44° C | 23% | 1016.2 hPa | 0 mm | - | 217 W/m² | - |
| 1777822350 | 19.44° C | 23% | 1016.2 hPa | 0 mm | - | 260 W/m² | - |
| 1777821667 | 18.89° C | 24% | 1016.2 hPa | 0 mm | - | 196 W/m² | - |
| 1777821015 | 18.33° C | 25% | 1016.2 hPa | 0 mm | - | 183 W/m² | - |
| 1777820384 | 17.78° C | 25% | 1016.7 hPa | 0 mm | - | 169 W/m² | - |
| 1777819783 | 17.22° C | 27% | 1016.7 hPa | 0 mm | - | 170 W/m² | - |
| 1777819143 | 16.67° C | 27% | 1016.2 hPa | 0 mm | - | 174 W/m² | - |
| 1777818478 | 15.56° C | 28% | 1016.2 hPa | 0 mm | - | 134 W/m² | - |
| 1777817850 | 15° C | 28% | 1016.2 hPa | 0 mm | - | 110 W/m² | - |
| 1777817235 | 15° C | 29% | 1016.2 hPa | 0 mm | - | 93 W/m² | - |
| 1777816560 | 14.44° C | 34% | 1016.7 hPa | 0 mm | - | 77 W/m² | - |
| 1777815902 | 13.89° C | 29% | 1016.7 hPa | 0 mm | - | 60 W/m² | - |
| 1777815287 | 13.33° C | 30% | 1016.2 hPa | 0 mm | - | 47 W/m² | - |
| 1777814614 | 12.78° C | 33% | 1016.2 hPa | 0 mm | - | 38 W/m² | - |
| 1777813907 | 12.22° C | 37% | 1016.2 hPa | 0 mm | - | 31 W/m² | - |
| 1777813212 | 11.67° C | 38% | 1015.8 hPa | 0 mm | - | 24 W/m² | - |
| 1777812565 | 11.11° C | 38% | 1015.8 hPa | 0 mm | - | 22 W/m² | - |
| 1777811943 | 11.11° C | 37% | 1015.8 hPa | 0 mm | - | 19 W/m² | - |
| 1777811255 | 11.67° C | 37% | 1015.4 hPa | 0 mm | - | 10 W/m² | - |
* Rain latest hour (hover to see other rain measurements)
** Current wind speed in m/s (hover to see current wind gust speed)